Hourly Data Report for December 01, 2020

L'ASSOMPTION
QUEBEC
Current Station Operator: ECCC - MSC

45°48'34.000" N
73°26'05.000" W
21.00 m
7014160
71524
WEW

Download Data

Hourly Data (December 2020)
Hourly Data Report for December 1, 2020
TIME
LST
Temp Definition
°C
Dew Point Definition
°C
Rel Hum Definition
%
Precip. Amount Definition
mm

Wind Dir Definition
10's deg

Wind Spd Definition
km/h
Visibility Definition
km
Stn Press Definition
kPa
Hmdx Definition


Wind Chill Definition


Weather Definition


00:00 5.5 5.0 96 0.0 1 6   99.40     LegendNANA
01:00 5.8 5.3 97 0.0 36 10   99.33     LegendNANA
02:00 6.3 5.9 97 0.5 2 6   99.36     LegendNANA
03:00 6.6 6.3 98 0.7 35 6   99.36     LegendNANA
04:00 7.1 6.8 98 0.3 34 8   99.37     LegendNANA
05:00 7.6 7.3 98 0.6 2 7   99.40     LegendNANA
06:00 7.8 7.5 98 1.2 3 9   99.41     LegendNANA
07:00 7.8 7.5 98 0.0 7 6   99.45     LegendNANA
08:00 7.4 7.1 98 0.0 20 6   99.57     LegendNANA
09:00 7.6 7.3 98 0.0 2 4   99.57     LegendNANA
10:00 8.0 7.8 98 0.0 2 7   99.55     LegendNANA
11:00 9.0 8.8 99 0.0 3 6   99.47     LegendNANA
12:00 9.9 9.7 99 0.0 3 7   99.35     LegendNANA
13:00 10.0 9.7 99 0.0 3 8   99.26     LegendNANA
14:00 9.6 9.3 98 1.5 24 17   99.30     LegendNANA
15:00 9.6 8.1 91 1.7 26 5   99.31     LegendNANA
16:00 8.6 7.8 94 0.0 21 4   99.33     LegendNANA
17:00 8.2 7.7 97 0.0 10 3   99.34     LegendNANA
18:00 7.6 5.4 86 0.6 23 17   99.35     LegendNANA
19:00 6.2 4.6 90 0.2 24 16   99.41     LegendNANA
20:00 5.6 4.4 91 0.0 15 8   99.55     LegendNANA
21:00 6.5 5.3 92 0.0 19 8   99.57     LegendNANA
22:00 5.8 4.0 88 0.0 21 19   99.68     LegendNANA
23:00 4.6 2.2 84 0.0 22 16   99.80     LegendNANA

Notes on Data Quality.

Legend

  • E = Estimated
  • M = Missing
  • NA = Not Available*
  • [empty] = Indicates an unobserved value
Date modified: